Home   Weather   Oberlin   Past weeks

Flag for USA Past Weather in Oberlin, Ohio, USA — Yesterday and Last 2 Weeks

Now
62 °F

Overcast.


Feels Like: 62 °F
Forecast: 52 / 63 °F
Wind: 16 mph from Southwest

Location: Lorain County Regional Airport

Current Time: Feb 23, 2017 at 1:58:58 pm

Latest Report: Feb 23, 2017 at 12:53 pm


Visibility: 10 mi

Pressure: 29.75 "Hg

Humidity: 73%

Dew Point: 53 °F

Location of OberlinLocation

Past Weather in Oberlin — Graph

°F

Oberlin Temperature Yesterday

Maximum temperature yesterday: 62 °F (at 3:53 pm)
Minimum temperature yesterday: 49 °F (at 1:53 am)
Average temperature yesterday: 57 °F

High & Low Weather Summary for the Past Weeks

 TemperatureHumidityPressure
High67 °F (Feb 18, 3:53 pm)93% (Feb 12, 5:07 am)30.39 "Hg (Feb 12, 5:07 am)
Low12 °F (Feb 10, 12:53 am)32% (Feb 19, 3:53 pm)29.57 "Hg (Feb 15, 1:42 am)
Average38 °F68%29.93 "Hg
* Reported Feb 8 11:53 am — Feb 23 11:53 am, Oberlin, Weather by CustomWeather, © 2017

Note: Actual official high and low records may vary slightly from our data, if they occured in-between our weather recording intervals... More about our weather records

Advertising

Oberlin Weather History for the Previous 24 Hours

Scroll right to see more
 ConditionsComfort  
Time TempWeatherWind HumidityBarometerVisibility
11:53 am
Thu, Feb 23
61 °FOvercast.18 mph72%29.77 "Hg10 mi
10:53 am60 °FOvercast.15 mph75%29.76 "Hg10 mi
9:53 am59 °FOvercast.16 mph78%29.75 "Hg10 mi
8:53 am59 °FOvercast.15 mph81%29.75 "Hg10 mi
7:53 am58 °FPartly sunny.15 mph81%29.74 "Hg10 mi
6:53 am58 °FOvercast.16 mph81%29.73 "Hg10 mi
6:21 am56 °FPassing clouds.12 mph87%29.73 "Hg8 mi
5:53 am56 °FPassing clouds.13 mph87%29.72 "Hg9 mi
4:53 am56 °FPassing clouds.13 mph84%29.73 "Hg9 mi
4:07 am57 °FOvercast.10 mph83%29.73 "Hg9 mi
3:53 am56 °FMostly cloudy.9 mph87%29.73 "Hg9 mi
3:18 am56 °FPassing clouds.12 mph87%29.74 "Hg9 mi
2:53 am56 °FPassing clouds.15 mph84%29.73 "Hg8 mi
1:53 am56 °FOvercast.14 mph84%29.75 "Hg8 mi
12:53 am55 °FPassing clouds.13 mph87%29.75 "Hg8 mi
11:53 pm
Wed, Feb 22
55 °FPassing clouds.10 mph87%29.75 "Hg9 mi
10:53 pm56 °FPassing clouds.12 mph84%29.77 "Hg10 mi
9:53 pm57 °FOvercast.13 mph81%29.80 "Hg10 mi
8:53 pm58 °FOvercast.10 mph78%29.81 "Hg10 mi
7:53 pm58 °FOvercast.10 mph78%29.80 "Hg10 mi
6:53 pm58 °FMostly cloudy.9 mph78%29.80 "Hg10 mi
6:34 pm58 °FMostly cloudy.8 mph78%29.80 "Hg10 mi
5:53 pm59 °FOvercast.10 mph75%29.80 "Hg10 mi
4:53 pm60 °FOvercast.8 mph72%29.80 "Hg10 mi
4:37 pm60 °FMostly cloudy.9 mph72%29.80 "Hg10 mi
3:53 pm62 °FOvercast.9 mph70%29.80 "Hg10 mi
3:33 pm61 °FOvercast.13 mph72%29.81 "Hg10 mi
2:53 pm61 °FMostly cloudy.14 mph72%29.81 "Hg10 mi
1:53 pm61 °FMostly cloudy.17 mph75%29.82 "Hg10 mi
Weather by CustomWeather, © 2017

See weather overviewHow to use our weather pages